This is the latest recevied weather packets stored in our database for station/object KJ5JYX. If no packets are shown the sender has not sent any weather packets the latest 10 day(s).
| Time | Temp. | Humidity | Pressure | Rain* | Wind** | Luminosity | Snow |
|---|---|---|---|---|---|---|---|
| 1778098198 | 15.56° C | 90% | 1014.7 hPa | 0 mm | - | 127 W/m² | - |
| 1778097894 | 15.56° C | 90% | 1014.8 hPa | 0 mm | - | 62 W/m² | - |
| 1778097591 | 15.56° C | 90% | 1015 hPa | 0 mm | - | 81 W/m² | - |
| 1778097288 | 15.56° C | 91% | 1015 hPa | 0 mm | - | 159 W/m² | - |
| 1778096984 | 15.56° C | 91% | 1015 hPa | 0 mm | - | 87 W/m² | - |
| 1778096682 | 15.56° C | 91% | 1014.9 hPa | 0 mm | - | 97 W/m² | - |
| 1778096379 | 15.56° C | 90% | 1015 hPa | 0 mm | - | 87 W/m² | - |
| 1778096076 | 15.56° C | 90% | 1014.9 hPa | 0 mm | - | 125 W/m² | - |
| 1778095772 | 15.56° C | 90% | 1014.6 hPa | 0 mm | - | 139 W/m² | - |
| 1778095469 | 15.56° C | 90% | 1014.9 hPa | 0 mm | - | 151 W/m² | - |
| 1778095166 | 15.56° C | 91% | 1014.7 hPa | 0 mm | - | 157 W/m² | - |
| 1778094862 | 15.56° C | 91% | 1014.7 hPa | 0 mm | - | 146 W/m² | - |
| 1778094560 | 15.56° C | 91% | 1014.9 hPa | 0 mm | - | 121 W/m² | - |
| 1778094256 | 15.56° C | 92% | 1014.9 hPa | 0 mm | - | 109 W/m² | - |
| 1778093953 | 15.56° C | 92% | 1014.8 hPa | 0 mm | - | 110 W/m² | - |
| 1778093650 | 15.56° C | 93% | 1015.1 hPa | 0 mm | - | 97 W/m² | - |
| 1778093348 | 15.56° C | 93% | 1015.2 hPa | 0 mm | - | 87 W/m² | - |
| 1778093044 | 15° C | 94% | 1015.2 hPa | 0 mm | - | 67 W/m² | - |
| 1778092741 | 15° C | 95% | 1015.4 hPa | 0 mm | - | 44 W/m² | - |
| 1778092436 | 15° C | 96% | 1014.9 hPa | 0 mm | - | 90 W/m² | - |
| 1778092134 | 15° C | 96% | 1015.1 hPa | 0 mm | - | 70 W/m² | - |
| 1778091831 | 15° C | 97% | 1015.2 hPa | 0 mm | - | 76 W/m² | - |
| 1778091528 | 15.56° C | 98% | 1014.9 hPa | 0 mm | - | 89 W/m² | - |
| 1778091226 | 15° C | 98% | 1015 hPa | 0 mm | - | 91 W/m² | - |
| 1778090923 | 15° C | 98% | 1015.1 hPa | 0 mm | - | 115 W/m² | - |
* Rain latest hour (hover to see other rain measurements)
** Current wind speed in m/s (hover to see current wind gust speed)